Find Starlink 32048

NORAD ID: 60156 Int'l Des: 2024-120 Owner: SPXS Country: US Constellation: starlink operational
LEOCIRCULAR

リアルタイム位置

3D地球を読み込み中...

Starlink 32048について

説明を読み込み中...

次回通過

Passes for default location (London). Set your location on the main map for personalized predictions.

高度履歴

Loading altitude history...

軌道要素

1 60156U 24120X 26121.25455874 -.00001112 00000-0 -25444-4 0 9999
2 60156 53.1609 75.7953 0001286 81.8006 278.3140 15.30189843104428
Epoch: May 1, 2026 • Age: 7 hours

現在のステータス

高度 475.9 km
速度 7.63 km/s
衛星直下点 25.07°N, 179.23°E
打ち上げ日 Jun 27, 2024
運用期間 1.8 years
タイプ internet

技術仕様

分類 Payload
質量 730.00 kg
乾燥質量 700.00 kg
総質量 730.00 kg
長さ 0.30 m
直径 4.10 m
スパン 29.00 m
形状 Box + pan
製造者 SPXS
バスタイプ Starlink V2M
フェーズステータス In Orbit
所有者/国 SPXS/US

Most Searched